User: anonymous   Login
Location: Unspecified
(0.0000°N, 0.0000°E)
Time: 23:20:12
(UTC+00:00)
Language:

SPROUT - Orbit

View from above orbital plane
View from above orbital plane
View from above satellite
View from above satellite

Ground track
Ground track

The orbit data is extracted from the following two-line orbital elements,

1 39770U 14029E   17141.90645084 +.00000671 +00000-0 +82593-4 0  9997
2 39770 097.8712 241.5372 0010712 060.6753 299.5547 14.86184647162238
Epoch (UTC): 21 May 2017 21:45:17
Eccentricity: 0.0010712
inclination: 97.8712°
perigee height: 602 km
apogee height: 617 km
right ascension of ascending node: 241.5372°
argument of perigee: 60.6753°
revolutions per day: 14.86184647
mean anomaly at epoch: 299.5547°
orbit number at epoch: 16223

The dashed part of the orbit path shows where the satellite is in the earth's shadow,  

DLR